{"data":{"norad_id":60932,"epoch":"2026-09-21T18:45:09.147168Z","epoch_age_seconds":77719,"freshness":"FRESH","line1":"1 60932U 24155J   26264.78135587 -.00000217  00000+0  30657-5 0  9997","line2":"2 60932  53.1587  94.3802 0000938  92.6390 267.4736 15.69706945119206","mean_motion":15.69706945,"eccentricity":9.38e-5,"inclination_deg":53.1587,"raan_deg":94.3802,"arg_perigee_deg":92.639,"mean_anomaly_deg":267.4736,"bstar":3.0657e-6,"rev_number":11920,"period_min":91.736868756735,"perigee_km":359.10348023475,"apogee_km":360.36750511438,"semimajor_km":6737.8724926746,"source":"CELESTRAK","updated_at":"2026-09-22T09:00:49.290620Z"}}